This is the latest recevied weather packets stored in our database for station/object WMKM. If no packets are shown the sender has not sent any weather packets the latest 10 day(s).
| Time | Temp. | Humidity | Pressure | Rain* | Wind** | Luminosity | Snow |
|---|---|---|---|---|---|---|---|
| 1777979448 | 30° C | 70% | 1006 hPa | - | - | - | - |
| 1777975848 | 30° C | 70% | 1006 hPa | - | - | - | - |
| 1777972259 | 30° C | 70% | 1006 hPa | - | - | - | - |
| 1777968647 | 30.56° C | 66% | 1006 hPa | - | - | - | - |
| 1777965043 | 30.56° C | 66% | 1007 hPa | - | - | - | - |
| 1777961448 | 30.56° C | 66% | 1008 hPa | - | - | - | - |
| 1777957859 | 31.67° C | 66% | 1009 hPa | - | - | - | - |
| 1777954246 | 31.67° C | 66% | 1010 hPa | - | - | - | - |
| 1777943444 | 26.67° C | 83% | 1010 hPa | - | - | - | - |
| 1777939861 | 25° C | 94% | 1009 hPa | - | - | - | - |
| 1777929044 | 23.89° C | 10% | - | - | - | - | - |
| 1777900244 | 25° C | 94% | 1009 hPa | - | - | - | - |
| 1777896645 | 25.56° C | 88% | 1009 hPa | - | - | - | - |
| 1777893059 | 25.56° C | 88% | 1008 hPa | - | - | - | - |
| 1777889444 | 25° C | 94% | 1007 hPa | - | - | - | - |
| 1777885843 | 25° C | 88% | 1008 hPa | - | - | - | - |
| 1777882242 | 30° C | 74% | 1008 hPa | - | - | - | - |
| 1777878658 | 30.56° C | 70% | 1008 hPa | - | - | - | - |
| 1777875043 | 31.67° C | 66% | 1009 hPa | - | - | - | - |
| 1777871442 | 30.56° C | 70% | 1010 hPa | - | - | - | - |
| 1777867842 | 30.56° C | 70% | 1011 hPa | - | - | - | - |
| 1777846258 | 23.89° C | 94% | 1009 hPa | - | - | - | - |
| 1777842644 | 23.89° C | 10% | - | - | - | - | - |
| 1777831841 | 25° C | 94% | 1009 hPa | - | - | - | - |
| 1777828258 | 25° C | 94% | 1010 hPa | - | - | - | - |
* Rain since midnight (hover to see other rain measurements)
** Current wind speed in m/s (hover to see current wind gust speed)